Tiempo cada hora Aalen

Hoy, 24 Junio, Jueves

Tiempo Temperatura Precipitaciones Viento Presión Humedad
00:00 +16°C° 2.8 mm 1 mps 722 mmHg 97%
01:00 +16°C° 0 mm 1 mps 722 mmHg 97%
02:00 +15°C° 0.3 mm 1 mps 722 mmHg 96%
03:00 +15°C° 0.3 mm 1 mps 722 mmHg 95%
04:00 +14°C° 0.3 mm 1 mps 721 mmHg 95%
05:00 +14°C° 0 mm 0 mps 722 mmHg 93%
06:00 +15°C° 0 mm 0 mps 722 mmHg 91%
07:00 +16°C° 0 mm 0 mps 722 mmHg 89%
08:00 +17°C° 0.3 mm 0 mps 722 mmHg 85%
09:00 +20°C° 0.3 mm 1 mps 722 mmHg 80%
10:00 +21°C° 0.3 mm 1 mps 722 mmHg 76%
11:00 +21°C° 1.6 mm 1 mps 722 mmHg 77%
12:00 +20°C° 1.6 mm 2 mps 722 mmHg 78%
13:00 +21°C° 1.6 mm 2 mps 722 mmHg 79%
14:00 +21°C° 0.5 mm 2 mps 722 mmHg 77%
15:00 +21°C° 0.5 mm 2 mps 722 mmHg 75%
16:00 +21°C° 0.5 mm 2 mps 721 mmHg 74%
17:00 +20°C° 0.9 mm 2 mps 721 mmHg 79%
18:00 +19°C° 0.9 mm 2 mps 721 mmHg 85%
19:00 +18°C° 0.9 mm 2 mps 721 mmHg 90%
20:00 +17°C° 1.7 mm 2 mps 722 mmHg 92%
21:00 +16°C° 1.7 mm 2 mps 722 mmHg 94%
22:00 +15°C° 1.7 mm 2 mps 722 mmHg 96%
23:00 +15°C° 0.5 mm 2 mps 722 mmHg 96%

Mañana, 25 Junio, Viernes

Tiempo Temperatura Precipitaciones Viento Presión Humedad
00:00 +14°C° 0.5 mm 3 mps 722 mmHg 97%
01:00 +13°C° 0.5 mm 3 mps 723 mmHg 97%
02:00 +14°C° 0.1 mm 2 mps 722 mmHg 97%
03:00 +14°C° 0.1 mm 2 mps 722 mmHg 97%
04:00 +14°C° 0.1 mm 2 mps 722 mmHg 97%
05:00 +14°C° 0.2 mm 2 mps 722 mmHg 97%
06:00 +13°C° 0.2 mm 3 mps 722 mmHg 97%
07:00 +13°C° 0.2 mm 3 mps 722 mmHg 97%
08:00 +14°C° 0.3 mm 3 mps 723 mmHg 96%
09:00 +14°C° 0.3 mm 3 mps 723 mmHg 95%
10:00 +16°C° 0.3 mm 3 mps 723 mmHg 94%
11:00 +16°C° 0.4 mm 3 mps 723 mmHg 93%
12:00 +16°C° 0.4 mm 3 mps 723 mmHg 92%
13:00 +17°C° 0.4 mm 3 mps 723 mmHg 91%
14:00 +17°C° 0.4 mm 3 mps 723 mmHg 89%
15:00 +18°C° 0.4 mm 3 mps 723 mmHg 87%
16:00 +18°C° 0.4 mm 2 mps 723 mmHg 85%
17:00 +18°C° 0.1 mm 2 mps 723 mmHg 86%
18:00 +18°C° 0.1 mm 2 mps 723 mmHg 88%
19:00 +19°C° 0.1 mm 1 mps 723 mmHg 89%
20:00 +16°C° 0.1 mm 1 mps 723 mmHg 90%
21:00 +15°C° 0.1 mm 1 mps 723 mmHg 92%
22:00 +14°C° 0.1 mm 1 mps 723 mmHg 93%
23:00 +13°C° 0 mm 1 mps 723 mmHg 93%

Pasado mañana, 26 Junio, Sábado

Tiempo Temperatura Precipitaciones Viento Presión Humedad
00:00 +12°C° 0 mm 0 mps 723 mmHg 93%
01:00 +12°C° 0 mm 0 mps 723 mmHg 92%
02:00 +12°C° 0 mm 0 mps 723 mmHg 92%
03:00 +11°C° 0 mm 0 mps 723 mmHg 92%
04:00 +11°C° 0 mm 0 mps 723 mmHg 92%
05:00 +12°C° 0 mm 0 mps 723 mmHg 91%
06:00 +13°C° 0 mm 0 mps 723 mmHg 89%
07:00 +15°C° 0 mm 0 mps 723 mmHg 87%
08:00 +18°C° 0 mm 1 mps 723 mmHg 80%
09:00 +19°C° 0 mm 2 mps 723 mmHg 74%
10:00 +20°C° 0 mm 2 mps 723 mmHg 68%
11:00 +21°C° 0 mm 2 mps 723 mmHg 65%
12:00 +23°C° 0 mm 2 mps 723 mmHg 63%
13:00 +23°C° 0 mm 1 mps 723 mmHg 60%
14:00 +24°C° 0 mm 1 mps 722 mmHg 60%
15:00 +24°C° 0 mm 1 mps 722 mmHg 59%
16:00 +24°C° 0 mm 1 mps 722 mmHg 58%
17:00 +23°C° 0 mm 1 mps 722 mmHg 65%
18:00 +23°C° 0 mm 1 mps 722 mmHg 71%
19:00 +22°C° 0 mm 1 mps 722 mmHg 78%
20:00 +20°C° 0 mm 1 mps 722 mmHg 81%
21:00 +19°C° 0 mm 1 mps 722 mmHg 84%
22:00 +16°C° 0 mm 1 mps 722 mmHg 87%
23:00 +16°C° 0 mm 1 mps 721 mmHg 88%

27 Junio, Domingo

Tiempo Temperatura Precipitaciones Viento Presión Humedad
00:00 +15°C° 0 mm 1 mps 721 mmHg 88%
01:00 +15°C° 0 mm 1 mps 721 mmHg 89%
02:00 +15°C° 0 mm 1 mps 721 mmHg 89%
03:00 +15°C° 0 mm 1 mps 721 mmHg 90%
04:00 +14°C° 0 mm 1 mps 721 mmHg 90%
05:00 +16°C° 0 mm 1 mps 721 mmHg 87%
06:00 +17°C° 0 mm 2 mps 721 mmHg 84%
07:00 +18°C° 0 mm 2 mps 721 mmHg 81%
08:00 +20°C° 0 mm 2 mps 721 mmHg 76%
09:00 +21°C° 0 mm 3 mps 721 mmHg 71%
10:00 +24°C° 0 mm 3 mps 721 mmHg 66%
11:00 +25°C° 0 mm 3 mps 721 mmHg 63%
12:00 +26°C° 0 mm 3 mps 721 mmHg 60%
13:00 +27°C° 0 mm 3 mps 720 mmHg 57%
14:00 +27°C° 0 mm 3 mps 720 mmHg 58%
15:00 +27°C° 0 mm 3 mps 720 mmHg 59%
16:00 +27°C° 0 mm 3 mps 720 mmHg 60%
17:00 +26°C° 0 mm 2 mps 720 mmHg 66%
18:00 +25°C° 0 mm 2 mps 720 mmHg 72%
19:00 +24°C° 0 mm 2 mps 720 mmHg 79%
20:00 +23°C° 0 mm 2 mps 720 mmHg 79%
21:00 +21°C° 0 mm 2 mps 719 mmHg 80%
22:00 +20°C° 0 mm 1 mps 719 mmHg 81%
23:00 +20°C° 0 mm 1 mps 719 mmHg 82%

28 Junio, Lunes

Tiempo Temperatura Precipitaciones Viento Presión Humedad
00:00 +19°C° 0 mm 1 mps 719 mmHg 83%
01:00 +17°C° 0 mm 0 mps 719 mmHg 84%
02:00 +19°C° 0 mm 1 mps 719 mmHg 85%
03:00 +18°C° 0 mm 1 mps 719 mmHg 86%
04:00 +18°C° 0 mm 1 mps 719 mmHg 87%
05:00 +19°C° 0 mm 1 mps 719 mmHg 85%
06:00 +20°C° 0 mm 1 mps 719 mmHg 84%
07:00 +20°C° 0 mm 2 mps 719 mmHg 83%
08:00 +21°C° 0 mm 2 mps 718 mmHg 78%
09:00 +24°C° 0 mm 2 mps 718 mmHg 73%
10:00 +25°C° 0 mm 2 mps 718 mmHg 68%
11:00 +26°C° 0 mm 2 mps 718 mmHg 66%
12:00 +27°C° 0 mm 2 mps 718 mmHg 64%
13:00 +28°C° 0 mm 2 mps 718 mmHg 62%
14:00 +28°C° 0 mm 2 mps 718 mmHg 62%
15:00 +29°C° 0 mm 1 mps 718 mmHg 61%
16:00 +29°C° 0 mm 1 mps 718 mmHg 60%
17:00 +26°C° 1.8 mm 3 mps 718 mmHg 72%
18:00 +22°C° 1.8 mm 5 mps 719 mmHg 84%
19:00 +18°C° 1.8 mm 7 mps 719 mmHg 96%
20:00 +17°C° 2 mm 6 mps 719 mmHg 96%
21:00 +16°C° 2 mm 5 mps 720 mmHg 97%
22:00 +14°C° 2 mm 4 mps 720 mmHg 97%
23:00 +14°C° 0.3 mm 4 mps 721 mmHg 97%

29 Junio, Martes

Tiempo Temperatura Precipitaciones Viento Presión Humedad
00:00 +14°C° 0.3 mm 3 mps 721 mmHg 97%
01:00 +14°C° 0.3 mm 2 mps 721 mmHg 97%
02:00 +14°C° 0 mm 2 mps 721 mmHg 97%
03:00 +14°C° 0 mm 2 mps 721 mmHg 96%
04:00 +14°C° 0 mm 1 mps 721 mmHg 96%
05:00 +14°C° 0 mm 1 mps 721 mmHg 95%
06:00 +15°C° 0 mm 1 mps 721 mmHg 94%
07:00 +14°C° 0 mm 0 mps 721 mmHg 93%
08:00 +15°C° 0 mm 0 mps 721 mmHg 88%
09:00 +15°C° 0 mm 0 mps 721 mmHg 84%
10:00 +16°C° 0 mm 0 mps 721 mmHg 79%
11:00 +17°C° 0.1 mm 0 mps 721 mmHg 74%
12:00 +20°C° 0.1 mm 1 mps 721 mmHg 69%
13:00 +22°C° 0.1 mm 1 mps 721 mmHg 65%
14:00 +21°C° 0.4 mm 1 mps 721 mmHg 68%
15:00 +20°C° 0.4 mm 2 mps 721 mmHg 71%
16:00 +20°C° 0.4 mm 2 mps 720 mmHg 74%
17:00 +19°C° 0.8 mm 2 mps 721 mmHg 80%
18:00 +19°C° 0.8 mm 1 mps 721 mmHg 86%
19:00 +18°C° 0.8 mm 1 mps 721 mmHg 92%
20:00 +16°C° 0.3 mm 1 mps 721 mmHg 93%
21:00 +16°C° 0.3 mm 1 mps 721 mmHg 94%
22:00 +15°C° 0.3 mm 1 mps 722 mmHg 94%
23:00 +15°C° 0 mm 1 mps 721 mmHg 94%
Mostrar más

Necesitamos Su Consentimiento

Meteoprog y nuestros Proveedores de Servicios pueden almacenar y acceder a sus datos personales como cookies, identificadores de dispositivo u otras tecnologías similares de su dispositivo y procesar dichos datos para personalizar contenido y anuncios, además de ofrecer funciones de redes sociales y analizar el tráfico.

  • Almacenar y/o acceder a información en su dispositivo

    Se puede almacenar o acceder a cookies, identificadores de dispositivo u otra información de su dispositivo para los fines anteriormente indicados.

  • Anuncios y contenido personalizados, medición de anuncios y contenido, percepciones del público, y desarrollo de productos

    Los anuncios y el contenido pueden personalizarse en base a su perfil. Se pueden añadir más datos para personalizar mejor los anuncios y contenidos. Se puede medir el rendimiento de los anuncios y contenidos. Se puede obtener la percepción sobre el público que ha visto los anuncios y contenidos. Dichos datos pueden usarse para desarrollar o mejorar la experiencia del usuario, sistemas y software.

Al hacer clic en ‘Estoy De Acuerdo’ usted permitirá el uso de las cookies, identificadores de dispositivo, balizas web u otras tecnologías similares indicadas. Su configuración puede cambiarse desde el navegador de su dispositivo.

Para ciertos fines, los intereses legítimos pueden ser considerados por encima del consentimiento. Puede leer más sobre ello en nuestra Política de Privacidad y Cookies.